Location: Dackenheim
(49.5215°N, 8.1854°E)
Time: 17:43:29
(UTC+00:00)

Okean-O - Pass Details

Date: 19 May 2025
Orbit: 628 x 631 km, 98.0° (Epoch: 16 June)

Event Time Altitude Azimuth Distance (km) Brightness Sun altitude
Exits shadow 20:03:38 - 166° (SSE) 2,423 5.1 -7.6°
Reaches altitude 10° 20:04:38 10° 166° (SSE) 2,009 4.7 -7.7°
Maximum altitude 20:09:01 86° 255° (WSW) 640 2.7 -8.2°
Drops below altitude 10° 20:13:26 10° 345° (NNW) 2,024 6.2 -8.7°
Sets 20:15:39 0° 346° (NNW) 2,936 7.2 -9.0°
